[[{"header":{"parameterUnit":"m.s-1","parameterCategory":1,"la1":30.2991,"la2":30.254,"lo1":-89.0895,"lo2":-89.0444,"dy":0.0017,"dx":0.0017,"nx":28,"ny":28,"refTime":"2024-03-12T03:00:00:Z","depth":0,"parameterNumber":2,"parameterNumberName":"U-component_of_WINDS"},"data":[0,0,0,0,0,0,0,0,0,0,0,0,0,0,0,0,0,0,0,0,0,0,0,0,0,0,0,0,0,0,0,0,0,0,0,0,0,0,0,0,0,0,0,0,0,0,0,0,0,0,0,0,0,0,0,0,0,0,-1.9515,-1.9515,0,-1.9485,-1.9485,-1.9485,-1.9408,-1.9406,-1.9404,-1.9403,-1.9373,-1.9374,-1.9375,0,0,0,0,0,0,0,0,0,0,0,0,0,-1.9508,-1.9509,-1.9515,-1.9515,-1.9515,-1.9486,-1.9485,-1.9485,-1.9408,-1.9406,-1.9404,-1.9402,-1.9373,-1.9374,-1.9375,0,0,0,0,0,0,0,0,0,0,0,0,0,-1.9498,-1.9509,-1.9515,-1.9473,-1.9469,-1.9486,-1.9485,-1.9485,-1.9408,-1.9406,-1.9403,-1.9401,-1.9373,-1.9374,-1.9375,-1.9431,0,0,-1.9378,-1.9379,0,0,0,0,0,0,0,0,-1.9499,-1.9499,-1.9479,-1.9476,-1.9471,-1.9448,-1.9472,-1.9467,-1.9409,-1.9431,-1.9403,-1.94,-1.94,-1.9399,-1.9399,-1.943,-1.9428,-1.9378,-1.9379,-1.9379,-1.938,0,0,0,0,0,0,0,-1.95,-1.9499,-1.9503,-1.9479,-1.9474,-1.9456,-1.9452,-1.947,-1.943,-1.9429,-1.9423,-1.9421,-1.9397,-1.9398,-1.9397,-1.9428,-1.9378,-1.9379,-1.938,-1.938,-1.9506,-1.9508,0,0,0,0,0,0,-1.9506,-1.9501,-1.9504,-1.9503,-1.9479,-1.9458,-1.9453,-1.9458,-1.9429,-1.9423,-1.9423,-1.9417,-1.9397,-1.9396,-1.9396,-1.9461,-1.9379,-1.938,-1.9381,-1.9503,-1.9506,-1.9509,0,0,0,0,0,0,-1.9507,-1.9507,-1.9506,-1.95,-1.9498,-1.9461,-1.9466,-1.9458,-1.9459,-1.9425,-1.9417,-1.9431,-1.9395,-1.9394,-1.9423,-1.9459,-1.9381,-1.9382,-1.95,-1.9504,-1.9508,-1.9591,0,0,0,0,0,0,-1.9507,-1.9508,-1.9528,-1.9501,-1.9499,-1.9533,-1.9468,-1.946,-1.9461,-1.9453,-1.943,-1.9424,-1.9393,-1.9422,-1.9424,-1.9459,-1.9383,-1.9497,-1.9502,-1.9507,-1.9585,-1.9597,-1.9608,0,0,0,0,0,-1.9507,-1.9552,-1.9529,-1.953,-1.9523,-1.9535,-1.9534,-1.9497,-1.9464,-1.9484,-1.9463,-1.9425,-1.9455,-1.9426,-1.9428,-1.9463,-1.9494,-1.95,-1.9506,-1.958,-1.9595,-1.9607,0,0,0,0,0,0,-1.9584,-1.9548,-1.9522,-1.956,-1.9552,-1.9522,-1.9546,-1.9514,-1.9514,-1.9507,-1.9462,-1.9458,-1.9493,-1.9481,-1.9449,-1.9517,-1.9468,-1.9475,-1.9523,-1.9538,-1.9549,-1.9551,-1.9384,0,0,0,0,0,-1.9606,-1.9618,-1.9586,-1.9623,-1.9619,-1.9584,-1.9588,-1.9561,-1.9549,-1.9545,-1.9526,-1.9517,-1.9525,-1.9531,-1.9535,-1.9583,-1.9578,-1.9609,-1.962,-1.963,-1.9636,-1.9662,-1.9676,-1.9529,-1.9529,-1.9529,0,0,-1.965,-1.9632,-1.9642,-1.9638,-1.9627,-1.9642,-1.9581,-1.9598,-1.9609,-1.9548,-1.9574,-1.956,-1.9547,-1.9586,-1.9603,-1.9577,-1.9676,-1.9637,-1.9645,-1.9646,-1.9669,-1.9683,-1.9696,-1.9533,-1.9532,-1.9532,0,0,-1.9739,-1.9726,-1.9756,-1.9747,-1.9733,-1.971,-1.9717,-1.9693,-1.9682,-1.9707,-1.9662,-1.9675,-1.9688,-1.9682,-1.968,-1.977,-1.9735,-1.9773,-1.9832,-1.9858,-1.987,-1.988,-1.9912,-1.9925,-1.9779,-1.9779,-1.9779,0,-1.9796,-1.9815,-1.9775,-1.9796,-1.9796,-1.9742,-1.9773,-1.9767,-1.9755,-1.9757,-1.9729,-1.9746,-1.9734,-1.9771,-1.9794,-1.9794,-1.9802,-1.9774,-1.9871,-1.9881,-1.989,-1.992,-1.9933,-1.9784,-1.9783,-1.9783,-1.9782,0,-1.9886,-1.9901,-1.9927,-1.9917,-1.992,-1.9946,-1.9912,-1.992,-1.9893,-1.9873,-1.9901,-1.9885,-1.9887,-1.9894,-1.9868,-1.9928,-1.9913,-1.9879,-1.9829,-1.9909,-1.9937,-1.9949,-1.9791,-1.9789,-1.9787,-1.9786,0,0,-2.002,-1.9991,-2.0001,-1.9997,-1.9978,-1.9989,-2.0013,-2.0015,-2.0023,-2.0018,-2.0038,-2.0052,-2.0021,-2.002,-1.9993,-2.0015,-2.0089,-1.9978,-1.9977,-2.0,-2.0156,-2.0182,-2.0196,-2.0066,-2.0068,-2.007,-2.0157,0,-2.0104,-2.0143,-2.0109,-2.0155,-2.0169,-2.0119,-2.0141,-2.0133,-2.0116,-2.0125,-2.0106,-2.0117,-2.0075,-2.0074,-2.0095,-2.0075,-2.0119,-2.0069,-2.0085,-2.0086,-2.0089,-2.021,-2.0237,-2.032,-2.0168,-2.017,-2.0171,0,-2.0206,-2.0206,-2.0253,-2.0234,-2.0238,-2.0258,-2.0258,-2.0268,-2.0258,-2.0244,-2.0244,-2.0212,-2.0235,-2.0188,-2.0221,-2.0187,-2.0192,-2.0184,-2.0186,-2.0186,-2.0133,-2.0213,-2.0346,-2.0358,-2.0188,-2.0186,-2.0185,0,-2.03,-2.0312,-2.0342,-2.034,-2.0318,-2.0333,-2.0325,-2.0313,-2.0317,-2.0317,-2.032,-2.0323,-2.0325,-2.0329,-2.0299,-2.0267,-2.0337,-2.0286,-2.0326,-2.0327,-2.0342,-2.0342,-2.0478,-2.0346,-2.0346,-2.0346,-2.0346,0,-2.0396,-2.0427,-2.0384,-2.0402,-2.0436,-2.0399,-2.0434,-2.042,-2.0411,-2.0427,-2.0385,-2.0401,-2.036,-2.0373,-2.035,-2.0381,-2.0382,-2.0372,-2.0366,-2.0376,-2.0377,-2.0378,-2.0372,-2.0349,-2.0349,-2.0348,-2.0347,0,-2.0506,-2.0478,-2.0508,-2.0485,-2.048,-2.0507,-2.0488,-2.0505,-2.0486,-2.0507,-2.051,-2.048,-2.0493,-2.0464,-2.0472,-2.0456,-2.0502,-2.0486,-2.0505,-2.05,-2.0543,-2.0539,-2.0683,-2.0701,-2.0559,-2.056,-2.0561,0,-2.0569,-2.0592,-2.0572,-2.058,-2.0574,-2.0587,-2.0591,-2.0556,-2.0562,-2.0555,-2.0573,-2.0583,-2.0588,-2.0611,-2.0591,-2.0597,-2.0582,-2.0632,-2.0582,-2.0592,-2.0583,-2.0582,-2.0584,-2.0642,-2.0643,-2.0645,-2.0646,0,-2.0684,-2.067,-2.0677,-2.0681,-2.0687,-2.0689,-2.0687,-2.0696,-2.0658,-2.0668,-2.0681,-2.0685,-2.0694,-2.0705,-2.0707,-2.07,-2.0667,-2.0662,-2.0672,-2.0682,-2.0692,-2.0688,-2.0533,-2.0659,-2.0657,-2.0656,-2.0656,-2.0655,-2.0772,-2.0791,-2.0781,-2.0791,-2.0787,-2.0787,-2.0802,-2.0786,-2.0795,-2.08,-2.0779,-2.0797,-2.0789,-2.079,-2.0786,-2.08,-2.0777,-2.0791,-2.0795,-2.0799,-2.0806,-2.0691,-2.08,-2.08,-2.08,-2.0799,-2.0799,0,-2.0886,-2.0877,-2.0887,-2.0887,-2.0896,-2.0865,-2.0862,-2.0872,-2.0888,-2.0883,-2.089,-2.0906,-2.0916,-2.0898,-2.0906,-2.0921,-2.0906,-2.0924,-2.0922,-2.0922,-2.0826,-2.0816,-2.0936,-2.0936,-2.0936,-2.0936,-2.0936,-2.0936,-2.0945,-2.0976,-2.0961,-2.099,-2.0981,-2.0998,-2.0999,-2.1,-2.0996,-2.1016,-2.1024,-2.1012,-2.1003,-2.101,-2.1019,-2.1013,-2.1018,-2.1041,-2.1031,-2.0941,-2.0928,-2.0915,-2.0906,-2.1043,-2.1043,-2.1125,-2.1126,-2.1127]},{"header":{"parameterUnit":"m.s-1","parameterCategory":1,"la1":30.2991,"la2":30.254,"lo1":-89.0895,"lo2":-89.0444,"dy":0.0017,"dx":0.0017,"nx":28,"ny":28,"refTime":"2024-03-12T03:00:00:Z","depth":0,"parameterNumber":3,"parameterNumberName":"V-component_of_WINDS"},"data":[0,0,0,0,0,0,0,0,0,0,0,0,0,0,0,0,0,0,0,0,0,0,0,0,0,0,0,0,0,0,0,0,0,0,0,0,0,0,0,0,0,0,0,0,0,0,0,0,0,0,0,0,0,0,0,0,0,0,1.8767,1.8767,0,1.8773,1.8773,1.8773,1.882,1.8821,1.8822,1.8823,1.8825,1.8824,1.8823,0,0,0,0,0,0,0,0,0,0,0,0,0,1.8794,1.8793,1.8767,1.8767,1.8767,1.8773,1.8773,1.8773,1.882,1.8821,1.8823,1.8824,1.8825,1.8824,1.8823,0,0,0,0,0,0,0,0,0,0,0,0,0,1.8789,1.8793,1.8767,1.8791,1.8794,1.8773,1.8773,1.8773,1.8819,1.8821,1.8823,1.8825,1.8825,1.8824,1.8822,1.8777,0,0,1.8817,1.8817,0,0,0,0,0,0,0,0,1.8789,1.8788,1.8788,1.879,1.8792,1.8798,1.8783,1.8774,1.8819,1.8809,1.8823,1.8825,1.8814,1.8813,1.881,1.8777,1.8777,1.8817,1.8816,1.8816,1.8815,0,0,0,0,0,0,0,1.879,1.8788,1.8769,1.8788,1.879,1.8801,1.8802,1.8781,1.8802,1.881,1.8814,1.8814,1.8815,1.8812,1.8811,1.8777,1.8817,1.8816,1.8815,1.8814,1.8707,1.8706,0,0,0,0,0,0,1.8787,1.8788,1.8769,1.877,1.8795,1.8799,1.8801,1.8794,1.8802,1.8805,1.8813,1.8816,1.8814,1.8813,1.8811,1.8758,1.8816,1.8814,1.8813,1.8709,1.8707,1.8705,0,0,0,0,0,0,1.8787,1.8785,1.8769,1.878,1.8779,1.8797,1.8789,1.8793,1.879,1.8804,1.8807,1.8805,1.8815,1.8813,1.8786,1.8759,1.8814,1.8812,1.8711,1.8709,1.8706,1.8652,0,0,0,0,0,0,1.8788,1.8785,1.8768,1.8779,1.8778,1.8744,1.8787,1.8792,1.8787,1.8792,1.8798,1.88,1.8816,1.8788,1.8784,1.8758,1.8811,1.8714,1.871,1.8707,1.8657,1.8648,1.8641,0,0,0,0,0,1.8789,1.8752,1.8767,1.8765,1.8758,1.8742,1.8742,1.8762,1.8785,1.8768,1.8777,1.88,1.8763,1.8784,1.8781,1.8754,1.8716,1.8711,1.8707,1.866,1.865,1.8641,0,0,0,0,0,0,1.8736,1.8754,1.8771,1.8737,1.8738,1.875,1.873,1.875,1.8744,1.8748,1.8772,1.8773,1.8742,1.8745,1.8769,1.871,1.8743,1.8738,1.8709,1.8699,1.8691,1.869,1.881,0,0,0,0,0,1.8721,1.8708,1.8724,1.8693,1.8692,1.8711,1.8705,1.8721,1.8722,1.8722,1.873,1.8729,1.8717,1.8709,1.8699,1.8658,1.8659,1.8638,1.863,1.8623,1.8618,1.8596,1.8586,1.8691,1.8691,1.8691,0,0,1.8689,1.8697,1.8687,1.8682,1.8685,1.867,1.8711,1.8693,1.8682,1.8719,1.8694,1.8699,1.87,1.8666,1.8651,1.8667,1.859,1.8618,1.8613,1.8611,1.8591,1.8581,1.8572,1.8688,1.8689,1.8689,0,0,1.8622,1.8628,1.8602,1.8604,1.8608,1.8621,1.8615,1.8625,1.863,1.8605,1.8633,1.862,1.8599,1.8598,1.8595,1.853,1.855,1.8526,1.8484,1.8463,1.8454,1.8447,1.8423,1.8414,1.8521,1.8521,1.8521,0,1.8581,1.856,1.8585,1.8566,1.8563,1.8598,1.8572,1.8572,1.8572,1.8569,1.8588,1.8563,1.8566,1.8532,1.8516,1.8513,1.8506,1.8525,1.8454,1.8447,1.8441,1.8417,1.8408,1.8518,1.8518,1.8519,1.8519,0,1.8509,1.8495,1.8473,1.8474,1.8469,1.8446,1.8466,1.8457,1.8474,1.8485,1.8459,1.8464,1.8456,1.8449,1.8465,1.8417,1.8427,1.845,1.8483,1.8427,1.8406,1.8397,1.8514,1.8515,1.8516,1.8516,0,0,1.8407,1.8424,1.8415,1.8416,1.8424,1.8412,1.8391,1.8385,1.8376,1.8376,1.8357,1.834,1.8361,1.8358,1.8374,1.8355,1.8302,1.838,1.8381,1.8364,1.8249,1.823,1.822,1.8317,1.8315,1.8314,1.8248,0,1.8342,1.8308,1.833,1.8291,1.8278,1.8312,1.8293,1.8295,1.8305,1.8294,1.8305,1.8291,1.8321,1.8319,1.8303,1.8312,1.8279,1.8317,1.8298,1.8297,1.8295,1.8209,1.819,1.8127,1.824,1.8239,1.8238,0,1.8261,1.8258,1.8219,1.823,1.8225,1.8208,1.8204,1.8194,1.8197,1.8205,1.8202,1.8223,1.8202,1.8236,1.8207,1.8232,1.8226,1.823,1.8228,1.8225,1.8263,1.8203,1.8108,1.8098,1.8225,1.8226,1.8227,0,1.8189,1.8176,1.815,1.815,1.8163,1.815,1.8154,1.8159,1.8154,1.815,1.8147,1.814,1.8136,1.813,1.8148,1.8172,1.8116,1.8152,1.8121,1.812,1.8106,1.8106,1.8007,1.8105,1.8105,1.8105,1.8105,0,1.8113,1.8087,1.8118,1.8102,1.8074,1.81,1.8071,1.8079,1.8084,1.8069,1.8098,1.8084,1.811,1.8097,1.8112,1.8084,1.8083,1.8088,1.8091,1.8084,1.8083,1.8079,1.8083,1.8102,1.8103,1.8103,1.8104,0,1.8027,1.8047,1.8021,1.8036,1.8039,1.8018,1.803,1.8015,1.8028,1.8009,1.8006,1.8025,1.8012,1.8031,1.8019,1.8029,1.7991,1.8002,1.799,1.7993,1.796,1.7962,1.7854,1.784,1.7947,1.7946,1.7946,0,1.7976,1.7957,1.7971,1.7964,1.7967,1.7955,1.7951,1.7976,1.797,1.7972,1.7957,1.7947,1.7941,1.7918,1.793,1.7922,1.7932,1.7895,1.7931,1.7924,1.793,1.793,1.7928,1.7886,1.7885,1.7884,1.7883,0,1.7884,1.7895,1.7888,1.7884,1.7878,1.7876,1.7876,1.7868,1.7895,1.7886,1.7874,1.7869,1.7859,1.7848,1.7843,1.7847,1.7868,1.7872,1.7864,1.7856,1.7849,1.7851,1.7968,1.7874,1.7875,1.7876,1.7876,1.7876,1.7813,1.7797,1.7805,1.7796,1.7799,1.7798,1.7785,1.7797,1.7788,1.7783,1.7798,1.7782,1.7786,1.7782,1.7783,1.7771,1.7787,1.7776,1.7772,1.7769,1.7763,1.7853,1.777,1.777,1.7771,1.7771,1.7771,0,1.7721,1.7727,1.7719,1.7719,1.7712,1.7736,1.7737,1.7729,1.7715,1.7718,1.7711,1.7698,1.7688,1.77,1.7692,1.7679,1.7689,1.7676,1.7677,1.7677,1.775,1.7757,1.7668,1.7668,1.7668,1.7668,1.7669,1.7669,1.7672,1.7647,1.7659,1.7636,1.7643,1.7629,1.7628,1.7627,1.763,1.7613,1.7606,1.7615,1.7621,1.7614,1.7605,1.7609,1.7604,1.7587,1.7594,1.7662,1.7672,1.7681,1.7688,1.7586,1.7586,1.7522,1.7522,1.7521]}]]